When you browse on this site, cookies collect data to enhance your experience and personalize the content and advertising you see.
Visit our Privacy Policy to learn more. By continuing to use the site, you agree to this use of cookies and data.
  • Em Portugal
  • Lista de países
  • Para 7 dias
  • Temperatura da água
  • Mapas de satélite
  • Mapa do tempo
  • Widgets de tempo
  • user-avatar
    Iniciar Sessão

    Previsão horária em Darvin

    Hoje, 23 Maio, Quinta-feira

    Tempo Temperatura Precipitação Vento Pressão Humidade
    00:00 +27°C° 0 mm 3 m/s 760 mmHg 59%
    01:00 +27°C° 0 mm 4 m/s 760 mmHg 61%
    02:00 +27°C° 0 mm 4 m/s 760 mmHg 63%
    03:00 +26°C° 0 mm 4 m/s 760 mmHg 65%
    04:00 +26°C° 0 mm 5 m/s 760 mmHg 67%
    05:00 +25°C° 0 mm 5 m/s 760 mmHg 69%
    06:00 +24°C° 0 mm 6 m/s 760 mmHg 71%
    07:00 +26°C° 0 mm 6 m/s 760 mmHg 65%
    08:00 +28°C° 0 mm 6 m/s 761 mmHg 58%
    09:00 +29°C° 0 mm 7 m/s 761 mmHg 52%
    10:00 +32°C° 0 mm 6 m/s 761 mmHg 46%
    11:00 +34°C° 0 mm 6 m/s 760 mmHg 40%
    12:00 +35°C° 0 mm 5 m/s 760 mmHg 34%
    13:00 +36°C° 0 mm 5 m/s 759 mmHg 34%
    14:00 +36°C° 0 mm 4 m/s 759 mmHg 34%
    15:00 +37°C° 0 mm 4 m/s 758 mmHg 34%
    16:00 +35°C° 0 mm 3 m/s 758 mmHg 40%
    17:00 +33°C° 0 mm 3 m/s 758 mmHg 45%
    18:00 +31°C° 0 mm 3 m/s 758 mmHg 50%
    19:00 +30°C° 0 mm 2 m/s 759 mmHg 53%
    20:00 +29°C° 0 mm 1 m/s 759 mmHg 56%
    21:00 +28°C° 0 mm 1 m/s 760 mmHg 59%
    22:00 +29°C° 0 mm 1 m/s 760 mmHg 58%
    23:00 +29°C° 0 mm 2 m/s 760 mmHg 57%

    Amanhã, 24 Maio, Sexta-feira

    Tempo Temperatura Precipitação Vento Pressão Humidade
    00:00 +29°C° 0 mm 2 m/s 760 mmHg 56%
    01:00 +28°C° 0 mm 3 m/s 760 mmHg 59%
    02:00 +27°C° 0 mm 4 m/s 760 mmHg 62%
    03:00 +26°C° 0 mm 4 m/s 759 mmHg 66%
    04:00 +26°C° 0 mm 4 m/s 760 mmHg 69%
    05:00 +25°C° 0 mm 5 m/s 760 mmHg 72%
    06:00 +25°C° 0 mm 5 m/s 760 mmHg 75%
    07:00 +27°C° 0 mm 5 m/s 760 mmHg 67%
    08:00 +28°C° 0 mm 6 m/s 760 mmHg 60%
    09:00 +30°C° 0 mm 6 m/s 761 mmHg 53%
    10:00 +33°C° 0 mm 6 m/s 760 mmHg 47%
    11:00 +34°C° 0 mm 5 m/s 760 mmHg 41%
    12:00 +36°C° 0 mm 5 m/s 759 mmHg 35%
    13:00 +37°C° 0 mm 4 m/s 759 mmHg 34%
    14:00 +37°C° 0 mm 4 m/s 758 mmHg 34%
    15:00 +37°C° 0 mm 3 m/s 757 mmHg 33%
    16:00 +36°C° 0 mm 3 m/s 757 mmHg 37%
    17:00 +34°C° 0 mm 2 m/s 757 mmHg 40%
    18:00 +32°C° 0 mm 2 m/s 757 mmHg 44%
    19:00 +31°C° 0 mm 2 m/s 758 mmHg 46%
    20:00 +30°C° 0 mm 2 m/s 758 mmHg 48%
    21:00 +29°C° 0 mm 2 m/s 759 mmHg 51%
    22:00 +29°C° 0 mm 2 m/s 759 mmHg 51%
    23:00 +28°C° 0 mm 2 m/s 759 mmHg 51%

    Depois de amanhã, 25 Maio, Sábado

    Tempo Temperatura Precipitação Vento Pressão Humidade
    00:00 +28°C° 0 mm 3 m/s 759 mmHg 51%
    01:00 +28°C° 0 mm 3 m/s 759 mmHg 54%
    02:00 +27°C° 0 mm 3 m/s 759 mmHg 57%
    03:00 +27°C° 0 mm 3 m/s 759 mmHg 60%
    04:00 +26°C° 0 mm 4 m/s 759 mmHg 63%
    05:00 +26°C° 0 mm 4 m/s 759 mmHg 65%
    06:00 +25°C° 0 mm 4 m/s 759 mmHg 68%
    07:00 +26°C° 0 mm 5 m/s 759 mmHg 63%
    08:00 +28°C° 0 mm 5 m/s 760 mmHg 59%
    09:00 +30°C° 0 mm 6 m/s 760 mmHg 54%
    10:00 +32°C° 0 mm 5 m/s 760 mmHg 48%
    11:00 +34°C° 0 mm 4 m/s 759 mmHg 41%
    12:00 +36°C° 0 mm 4 m/s 759 mmHg 35%
    13:00 +36°C° 0 mm 3 m/s 758 mmHg 34%
    14:00 +37°C° 0 mm 3 m/s 757 mmHg 33%
    15:00 +37°C° 0 mm 2 m/s 756 mmHg 33%
    16:00 +36°C° 0 mm 2 m/s 757 mmHg 39%
    17:00 +34°C° 0 mm 3 m/s 757 mmHg 44%
    18:00 +31°C° 0 mm 3 m/s 757 mmHg 50%
    19:00 +30°C° 0 mm 2 m/s 758 mmHg 55%
    20:00 +30°C° 0 mm 2 m/s 758 mmHg 59%
    21:00 +29°C° 0 mm 1 m/s 759 mmHg 64%
    22:00 +28°C° 0 mm 2 m/s 759 mmHg 66%
    23:00 +28°C° 0 mm 2 m/s 759 mmHg 68%

    26 Maio, Domingo

    Tempo Temperatura Precipitação Vento Pressão Humidade
    00:00 +28°C° 0 mm 2 m/s 759 mmHg 69%
    01:00 +27°C° 0 mm 2 m/s 759 mmHg 68%
    02:00 +27°C° 0 mm 3 m/s 758 mmHg 67%
    03:00 +27°C° 0 mm 3 m/s 758 mmHg 65%
    04:00 +26°C° 0 mm 3 m/s 758 mmHg 67%
    05:00 +26°C° 0 mm 3 m/s 758 mmHg 68%
    06:00 +26°C° 0 mm 3 m/s 759 mmHg 69%
    07:00 +27°C° 0 mm 4 m/s 759 mmHg 65%
    08:00 +28°C° 0 mm 4 m/s 760 mmHg 61%
    09:00 +29°C° 0 mm 4 m/s 760 mmHg 57%
    10:00 +32°C° 0 mm 4 m/s 760 mmHg 49%
    11:00 +33°C° 0 mm 5 m/s 759 mmHg 41%
    12:00 +35°C° 0 mm 5 m/s 759 mmHg 32%
    13:00 +36°C° 0 mm 4 m/s 758 mmHg 32%
    14:00 +36°C° 0 mm 3 m/s 757 mmHg 31%
    15:00 +37°C° 0 mm 3 m/s 757 mmHg 30%
    16:00 +35°C° 0 mm 2 m/s 757 mmHg 34%
    17:00 +34°C° 0 mm 2 m/s 757 mmHg 37%
    18:00 +31°C° 0 mm 2 m/s 758 mmHg 41%
    19:00 +30°C° 0 mm 2 m/s 758 mmHg 43%
    20:00 +30°C° 0 mm 2 m/s 759 mmHg 44%
    21:00 +29°C° 0 mm 3 m/s 759 mmHg 46%
    22:00 +28°C° 0 mm 3 m/s 759 mmHg 47%
    23:00 +28°C° 0 mm 3 m/s 759 mmHg 47%

    27 Maio, Segunda-feira

    Tempo Temperatura Precipitação Vento Pressão Humidade
    00:00 +28°C° 0 mm 4 m/s 759 mmHg 48%
    01:00 +27°C° 0 mm 4 m/s 759 mmHg 50%
    02:00 +27°C° 0 mm 5 m/s 759 mmHg 53%
    03:00 +27°C° 0 mm 6 m/s 758 mmHg 55%
    04:00 +26°C° 0 mm 5 m/s 759 mmHg 60%
    05:00 +26°C° 0 mm 5 m/s 759 mmHg 64%
    06:00 +25°C° 0 mm 4 m/s 759 mmHg 68%
    07:00 +27°C° 0 mm 5 m/s 760 mmHg 63%
    08:00 +28°C° 0 mm 5 m/s 760 mmHg 58%
    09:00 +29°C° 0 mm 6 m/s 760 mmHg 52%
    10:00 +32°C° 0 mm 6 m/s 760 mmHg 46%
    11:00 +34°C° 0 mm 5 m/s 759 mmHg 40%
    12:00 +36°C° 0 mm 5 m/s 759 mmHg 33%
    13:00 +36°C° 0 mm 5 m/s 758 mmHg 33%
    14:00 +36°C° 0 mm 4 m/s 757 mmHg 32%
    15:00 +37°C° 0 mm 3 m/s 757 mmHg 31%
    16:00 +35°C° 0 mm 3 m/s 757 mmHg 35%
    17:00 +34°C° 0 mm 2 m/s 757 mmHg 38%
    18:00 +32°C° 0 mm 2 m/s 758 mmHg 42%
    19:00 +31°C° 0 mm 2 m/s 758 mmHg 43%
    20:00 +30°C° 0 mm 2 m/s 759 mmHg 45%
    21:00 +29°C° 0 mm 2 m/s 759 mmHg 47%
    22:00 +29°C° 0 mm 3 m/s 759 mmHg 47%
    23:00 +29°C° 0 mm 3 m/s 759 mmHg 48%

    28 Maio, Terça-feira

    Tempo Temperatura Precipitação Vento Pressão Humidade
    00:00 +28°C° 0 mm 4 m/s 759 mmHg 49%
    01:00 +28°C° 0 mm 4 m/s 759 mmHg 51%
    02:00 +27°C° 0 mm 5 m/s 758 mmHg 53%
    03:00 +27°C° 0 mm 5 m/s 758 mmHg 55%
    04:00 +26°C° 0 mm 5 m/s 759 mmHg 58%
    05:00 +26°C° 0 mm 5 m/s 759 mmHg 61%
    06:00 +25°C° 0 mm 4 m/s 759 mmHg 65%
    07:00 +26°C° 0 mm 5 m/s 759 mmHg 60%
    08:00 +28°C° 0 mm 6 m/s 760 mmHg 56%
    09:00 +29°C° 0 mm 6 m/s 760 mmHg 51%
    10:00 +32°C° 0 mm 6 m/s 760 mmHg 46%
    11:00 +33°C° 0 mm 5 m/s 759 mmHg 41%
    12:00 +35°C° 0 mm 5 m/s 759 mmHg 36%
    13:00 +36°C° 0 mm 4 m/s 758 mmHg 35%
    14:00 +36°C° 0 mm 4 m/s 758 mmHg 34%
    15:00 +36°C° 0 mm 3 m/s 757 mmHg 34%
    16:00 +35°C° 0 mm 2 m/s 757 mmHg 37%
    17:00 +34°C° 0 mm 2 m/s 758 mmHg 41%
    18:00 +31°C° 0 mm 2 m/s 758 mmHg 44%
    19:00 +31°C° 0 mm 2 m/s 758 mmHg 44%
    20:00 +30°C° 0 mm 3 m/s 759 mmHg 45%
    21:00 +29°C° 0 mm 3 m/s 759 mmHg 45%
    22:00 +29°C° 0 mm 3 m/s 759 mmHg 45%
    23:00 +29°C° 0 mm 4 m/s 759 mmHg 44%
    Mostrar mais